Location: Newark
(48.1500°N, 13.1167°E)
Time: 18:36:32
(UTC+00:00)

Tiangong - Pass Details

Date: 30 September 2021
Orbit: 382 x 385 km, 41.5° (Epoch: 16 October)

Event Time Altitude Azimuth Distance (km) Brightness Sun altitude
Exits shadow 03:14:54 18° 165° (SSE) 1,033 3.2 -19.0°
Drops below altitude 10° 03:17:06 10° 120° (ESE) 1,398 4.5 -18.7°
Sets 03:19:36 0° 100° (E) 2,252 6.1 -18.3°
